Hayward, WI

8:58 PM CDT on June 26, 2017 (GMT -0500)
Sawyer County

Weather History for KHYR - May, 2012

Change the Weather History Date:

Thursday, May 17, 2012

  Actual Average Record
Temperature  
Mean Temperature 56 °F -  
Max Temperature 71 °F 75 °F 84 °F (1998)
Min Temperature 41 °F 39 °F 26 °F (2002)
Degree Days  
Heating Degree Days 10    
Growing Degree Days 6 (Base 50)    
Moisture  
Dew Point 40 °F    
Average Humidity 51    
Maximum Humidity 82    
Minimum Humidity 36    
Precipitation  
Precipitation 0.00 in - - ()
Sea Level Pressure  
Sea Level Pressure 29.96 in    
Wind  
Wind Speed 5 mph (SSE)    
Max Wind Speed 17 mph    
Max Gust Speed 25 mph    
Visibility 10 miles    
Events Rain    
Averages and records for this station are not official NWS values.
T = Trace of Precipitation, MM = Missing Value Source: NWS Daily Summary

Daily Weather History Graph

Daily Weather History Graph

Search for Another Location

Airport or City:

Trip Planner

Search our weather history database for the weather conditions in past years. The results will help you decide how hot, cold, wet, or windy it might be!

Date:

Astronomy

May. 17, 2012 Rise Set
Actual Time 5:30 AM CDT 8:34 PM CDT
Civil Twilight 4:55 AM CDT 9:09 PM CDT
Nautical Twilight 4:09 AM CDT 9:55 PM CDT
Astronomical Twilight 3:14 AM CDT 10:51 PM CDT
Moon 3:38 AM CDT (5/17) 5:40 PM CDT (5/17)
Length of Visible Light 16h 14m
Length of Day
15h 03m
Waning Crescent, 9% of the Moon is Illuminated
May 17
Waning Crescent
May 20
New
May 28
First Quarter
Jun 4
Full
Jun 11
Last Quarter

Hourly Weather History & Observations

Time (CDT) Temp. Dew Point Humidity Pressure Visibility Wind Dir Wind Speed Gust Speed Precip Events Conditions
12:53 AM 41.0 °F 36.0 °F 82% 30.09 in 10.0 mi Calm Calm - N/A   Clear
1:53 AM 43.0 °F 37.9 °F 82% 30.07 in 10.0 mi Calm Calm - N/A   Partly Cloudy
2:53 AM 46.9 °F 37.9 °F 71% 30.06 in 10.0 mi Calm Calm - N/A   Clear
3:53 AM 51.1 °F 33.1 °F 50% 30.05 in 10.0 mi Calm Calm - N/A   Clear
4:53 AM 50.0 °F 33.1 °F 52% 30.04 in 10.0 mi Calm Calm - N/A   Mostly Cloudy
5:53 AM 48.9 °F 33.1 °F 54% 30.06 in 10.0 mi Calm Calm - N/A   Clear
6:53 AM 51.1 °F 35.1 °F 54% 30.06 in 10.0 mi SSE 4.6 mph - N/A   Clear
7:53 AM 54.0 °F 36.0 °F 51% 30.05 in 10.0 mi SE 6.9 mph - N/A   Mostly Cloudy
8:53 AM 57.0 °F 37.9 °F 49% 30.05 in 10.0 mi South 8.1 mph - N/A   Mostly Cloudy
9:53 AM 55.0 °F 41.0 °F 59% 29.99 in 10.0 mi SE 12.7 mph 23.0 mph 0.00 in   Mostly Cloudy
10:53 AM 55.9 °F 43.0 °F 62% 30.01 in 10.0 mi SSE 8.1 mph 16.1 mph 0.00 in   Overcast
11:53 AM 63.0 °F 44.1 °F 50% 29.97 in 10.0 mi SE 11.5 mph - N/A   Clear
12:53 PM 68.0 °F 45.0 °F 43% 29.94 in 10.0 mi SSE 13.8 mph 21.9 mph N/A   Partly Cloudy
1:53 PM 66.0 °F 43.0 °F 43% 29.92 in 10.0 mi South 11.5 mph 21.9 mph N/A   Clear
2:53 PM 70.0 °F 44.1 °F 39% 29.91 in 10.0 mi South 13.8 mph 20.7 mph N/A   Scattered Clouds
3:53 PM 68.0 °F 39.9 °F 36% 29.89 in 10.0 mi South 8.1 mph 25.3 mph 0.00 in   Scattered Clouds
4:53 PM 66.0 °F 42.1 °F 42% 29.89 in 10.0 mi South 17.3 mph 23.0 mph 0.00 in   Overcast
5:53 PM 63.0 °F 45.0 °F 52% 29.91 in 10.0 mi South 13.8 mph 18.4 mph 0.00 in Rain Light Rain
6:53 PM 64.0 °F 44.1 °F 48% 29.88 in 10.0 mi SSE 13.8 mph 23.0 mph 0.00 in   Mostly Cloudy
7:53 PM 64.9 °F 43.0 °F 45% 29.85 in 10.0 mi SE 11.5 mph 24.2 mph N/A   Clear
8:53 PM 66.0 °F 43.0 °F 43% 29.83 in 10.0 mi SSE 11.5 mph 21.9 mph N/A   Clear
9:53 PM 66.0 °F 43.0 °F 43% 29.83 in 10.0 mi SSE 11.5 mph 17.3 mph N/A   Partly Cloudy
10:53 PM 64.9 °F 43.0 °F 45% 29.83 in 10.0 mi South 9.2 mph 19.6 mph N/A   Clear
11:53 PM 66.0 °F 41.0 °F 40% 29.82 in 10.0 mi South 6.9 mph 20.7 mph N/A   Clear